Simultaneous Nadir Overpasses (SNOs) Predictions

Prediction of SNOs between GOES-16 and LANDSAT-8 Satellite Orbit:

Table of predicted SNOs for the next 14.0 days since TLE Epoch: 6/11/2022
Index Date Time (GOES-16) GOES-16 Lat,Lon LANDSAT-8 Lat,Lon Distance(km) Time Diff (sec)
1 06/11/2022 14:57:06 0.04, -75.21 -0.85, -70.97 481.56 80
2 06/12/2022 03:15:51 -0.03, -75.19 -0.23, -76.17 110.49 80
3 06/14/2022 03:06:21 -0.03, -75.20 0.40, -73.22 225.97 80
4 06/14/2022 15:24:56 0.03, -75.22 0.68, -78.37 358.71 80
5 06/16/2022 15:12:46 0.03, -75.22 0.04, -75.42 22.13 80
6 06/18/2022 15:03:16 0.02, -75.24 -0.54, -72.46 315.59 80
7 06/19/2022 03:24:40 -0.02, -75.23 -0.54, -77.66 275.78 80
8 06/21/2022 03:09:50 -0.02, -75.26 0.12, -74.71 63.15 80
9 06/23/2022 02:57:39 -0.02, -75.29 0.72, -71.74 402.89 80
10 06/23/2022 15:18:55 0.02, -75.31 0.36, -76.90 180.99 80
